Willimantic, CT

5:35 AM EDT on June 24, 2017 (GMT -0400)
Windham

Weather History for KIJD - March, 2012

Change the Weather History Date:

Saturday, March 24, 2012

  Actual Average Record
Temperature  
Mean Temperature 56 °F -  
Max Temperature 64 °F 49 °F 70 °F (1979)
Min Temperature 48 °F 25 °F 13 °F (1967)
Degree Days  
Heating Degree Days 10    
Growing Degree Days 6 (Base 50)    
Moisture  
Dew Point 27 °F    
Average Humidity 35    
Maximum Humidity 70    
Minimum Humidity 21    
Precipitation  
Precipitation 0.00 in - - ()
Sea Level Pressure  
Sea Level Pressure 30.08 in    
Wind  
Wind Speed 3 mph (SE)    
Max Wind Speed 10 mph    
Max Gust Speed -    
Visibility 10 miles    
Events Rain    
Averages and records for this station are not official NWS values.
T = Trace of Precipitation, MM = Missing Value Source: NWS Daily Summary

Daily Weather History Graph

Daily Weather History Graph

Search for Another Location

Airport or City:

Trip Planner

Search our weather history database for the weather conditions in past years. The results will help you decide how hot, cold, wet, or windy it might be!

Date:

Astronomy

Mar. 24, 2012 Rise Set
Actual Time 6:44 AM EDT 7:05 PM EDT
Civil Twilight 6:16 AM EDT 7:33 PM EDT
Nautical Twilight 5:43 AM EDT 8:06 PM EDT
Astronomical Twilight 5:10 AM EDT 8:40 PM EDT
Moon 7:19 AM EDT 9:25 PM EDT
Length of Visible Light 13h 17m
Length of Day
12h 21m
Waxing Crescent, 4% of the Moon is Illuminated
Mar 24
Waxing Crescent
Mar 30
First Quarter
Apr 6
Full
Apr 13
Last Quarter
Apr 21
New

Hourly Weather History & Observations

Time (EDT) Temp. Dew Point Humidity Pressure Visibility Wind Dir Wind Speed Gust Speed Precip Events Conditions
12:52 AM 57.9 °F 48.0 °F 70% 30.07 in 10.0 mi Calm Calm - N/A   Mostly Cloudy
1:52 AM 57.9 °F 42.1 °F 56% 30.08 in 10.0 mi NNE 3.5 mph - N/A   Overcast
2:52 AM 57.9 °F 33.1 °F 39% 30.08 in 10.0 mi NE 6.9 mph - N/A   Overcast
3:52 AM 55.9 °F 28.0 °F 34% 30.08 in 10.0 mi NE 3.5 mph - N/A   Partly Cloudy
4:52 AM 57.0 °F 25.0 °F 29% 30.08 in 10.0 mi Calm Calm - N/A   Overcast
5:52 AM 54.0 °F 28.0 °F 37% 30.09 in 10.0 mi NNE 3.5 mph - N/A   Overcast
6:52 AM 53.1 °F 28.0 °F 38% 30.10 in 10.0 mi NE 4.6 mph - N/A   Overcast
7:52 AM 53.1 °F 24.1 °F 32% 30.12 in 10.0 mi Calm Calm - N/A   Partly Cloudy
8:52 AM 55.0 °F 19.9 °F 25% 30.12 in 10.0 mi East 6.9 mph - N/A   Partly Cloudy
9:52 AM 57.0 °F 19.9 °F 24% 30.14 in 10.0 mi Variable 4.6 mph - N/A   Clear
10:52 AM 59.0 °F 19.9 °F 22% 30.13 in 10.0 mi SE 5.8 mph - N/A   Partly Cloudy
11:52 AM 60.1 °F 21.9 °F 23% 30.12 in 10.0 mi Calm Calm - N/A   Mostly Cloudy
12:52 PM 60.1 °F 21.9 °F 23% 30.10 in 10.0 mi South 4.6 mph - N/A   Clear
1:52 PM 63.0 °F 21.9 °F 21% 30.07 in 10.0 mi Calm Calm - N/A   Partly Cloudy
2:52 PM 62.1 °F 21.9 °F 21% 30.06 in 10.0 mi South 5.8 mph - N/A   Mostly Cloudy
3:52 PM 59.0 °F 26.1 °F 28% 30.06 in 10.0 mi South 10.4 mph - N/A   Mostly Cloudy
4:52 PM 57.0 °F 28.0 °F 33% 30.06 in 10.0 mi South 6.9 mph - N/A   Scattered Clouds
6:52 PM 53.1 °F 28.9 °F 40% 30.05 in 10.0 mi South 5.8 mph - N/A   Partly Cloudy
7:52 PM 51.1 °F 28.0 °F 41% 30.05 in 10.0 mi South 5.8 mph - N/A   Mostly Cloudy
8:52 PM 50.0 °F 25.0 °F 38% 30.06 in 10.0 mi Calm Calm - N/A   Mostly Cloudy
9:52 PM 50.0 °F 25.0 °F 38% 30.06 in 10.0 mi SSE 5.8 mph - 0.00 in Rain Light Rain
10:52 PM 48.9 °F 26.1 °F 41% 30.06 in 10.0 mi South 3.5 mph - 0.00 in   Overcast
11:52 PM 48.0 °F 27.0 °F 44% 30.04 in 10.0 mi East 3.5 mph - N/A   Overcast